Location: Hains Lake
(37.8540°N, 99.8578°W)
Time: 21:37:59
(UTC+00:00)

Vanguard 2 Rocket - Pass Details

Date: 20 April 2021
Orbit: 553 x 3326 km, 32.9° (Epoch: 05 May)

Event Time Altitude Azimuth Distance (km) Brightness Sun altitude
Rises 18:32:58 0° 222° (SW) 5,868 11.3 63.9°
Reaches altitude 10° 18:36:33 10° 217° (SW) 5,177 11.2 63.9°
Maximum altitude 18:52:10 49° 148° (SSE) 3,784 11.5 63.8°
Drops below altitude 10° 19:11:01 10° 82° (E) 6,167 11.1 62.9°
Sets 19:15:43 0° 78° (ENE) 7,023 11.3 62.6°
